Terminal Aerodrome Forecast
Issued by NWS Wilmington, OH

Current Version | Previous Version | Text Only | Print | Product List | Glossary Off
Versions: 1 2 3 4 5 6 7 8 9 10 11 12 13 14 15 16 17 18 19 20

000
FTUS41 KILN 201136
TAFCMH
TAF
KCMH 201136Z 2012/2112 13003KT 1/4SM FG VV002
     FM201400 00000KT 1/2SM FG BKN020
     FM201500 00000KT 3/4SM BR BKN060
     FM201600 13004KT P6SM BKN080
     FM201800 14004KT P6SM SCT070
     FM210400 13005KT P6SM BKN200=

USA.gov is the U.S. government's official web portal to all federal, state and local government web resources and services.